Location: Fernhill
(41.0167°S, 175.6333°E)
Time: 09:53:53
(UTC+00:00)

USA 238 DEB - Pass Details

Date: 08 November 2025
Orbit: 886 x 1325 km, 63.4° (Epoch: 24 November)

Event Time Altitude Azimuth Distance (km) Brightness Sun altitude
Rises 09:58:42 0° 213° (SSW) 3,896 8.0 -25.7°
Reaches altitude 10° 10:01:35 10° 207° (SSW) 2,868 7.0 -26.0°
Maximum altitude 10:08:03 49° 132° (SE) 1,234 4.0 -26.6°
Enters shadow 10:09:20 43° 97° (E) 1,321 4.0 -26.7°
